Overview Statistics Trail Chart Weather Telemetry Raw packets
 

This is the latest recevied weather packets stored in our database for station/object KGRR-WX. If no packets are shown the sender has not sent any weather packets the latest 10 day(s).

<< 27 28 29 30 31 32 33 >>
Time Temp. Humidity Pressure Rain* Wind** Luminosity Snow
1787950807 26.67° C 23% 992.6 hPa 0 mm - - -
1787949908 26.67° C 25% 992.2 hPa 0 mm - - -
1787949006 26.11° C 30% 992.1 hPa 0 mm - - -
1787948107 26.11° C 30% 992.1 hPa 0 mm - - -
1787947213 26.11° C 35% 992.1 hPa 0 mm - - -
1787946305 26.11° C 34% 991.9 hPa 0 mm - - -
1787945406 26.11° C 34% 991.9 hPa 0 mm - - -
1787944514 26.67° C 34% 992 hPa 0 mm - - -
1787943605 26.11° C 34% 992 hPa 0 mm - - -
1787942707 26.11° C 36% 992.8 hPa 0 mm - - -
1787941805 26.11° C 36% 992.8 hPa 0 mm - - -
1787940914 25.56° C 36% 992.8 hPa 0 mm - - -
1787940007 25.56° C 36% 992.8 hPa 0 mm - - -
1787939105 25° C 49% 992.7 hPa 0 mm - - -
1787938205 25.56° C 36% 992.4 hPa 0 mm - - -
1787937305 25.56° C 36% 992.4 hPa 0 mm - - -
1787936407 25° C 36% 992.4 hPa 0 mm - - -
1787935505 24.44° C 49% 992.7 hPa 0 mm - - -
1787934607 24.44° C 42% 992.9 hPa 0 mm - - -
1787933705 23.89° C 42% 992.9 hPa 0 mm - - -
1787932805 23.33° C 42% 992.9 hPa 0 mm - - -
1787931906 22.78° C 56% 992.6 hPa 0 mm - - -
1787931005 22.22° C 53% 993.3 hPa 0 mm - - -
1787930113 21.67° C 53% 993.3 hPa 0 mm - - -
1787929206 21.11° C 53% 993.3 hPa 0 mm - - -

* Rain latest hour (hover to see other rain measurements)
** Current wind speed in m/s (hover to see current wind gust speed)